www.pogodaiklimat.ru

Погода и климат >> Архив погоды >> Оман >> Marmul


ПОГОДА в Marmul

  • Прогноз погоды в Marmul
  • Монитор погоды в Marmul
  • Климат города

АРХИВ ПОГОДЫ в Marmul

Время (UTC), дата Ветер
(напр.,м/с)
 
Видим.   Явления Облачность Т
(С)
Тd
(С)
f
(%)
Тe
(С)
Тes
(С)
Комфортность P
(гПа)
Po
(гПа)
Тmin
(С)
Tmax
(С)
R
(мм)
R24
(мм)
S
(см)
09 18.06 З 7 н/о н/о +42.4 +4.1 10 +39 +39 очень
жарко
998.5 970.0
12 18.06 З 6 н/о н/о +42.8 +1.3 8 +39 +39 очень
жарко
996.8 968.4
15 18.06 З 5 н/о н/о +40.2 +5.8 12 +37 +37 очень
жарко
997.3 968.7
18 18.06 ЮЗ 5 н/о н/о +34.3 +9.9 23 +33 +33 жарко 999.4 970.2 +43.9
21 18.06 ЮЗ 6 н/о н/о +33.5 +5.8 18 +31 +31 жарко 998.7 969.4
00 19.06 ЮЗ 5 н/о н/о +30.5 +10.1 28 +30 +30 жарко 999.1 969.5
03 19.06 ЮЗ 6 н/о н/о +31.1 +14.5 36 +33 +33 душно 1000.1 970.6
06 19.06 ЮЗ 7 н/о н/о +37.4 +14.3 25 +38 +38 душно 999.9 971.0 +28.9
09 19.06 З 8 н/о н/о +42.3 +2.9 9 +39 +39 очень
жарко
998.2 969.7
12 19.06 З 7 н/о н/о +42.2 +1.3 8 +39 +39 очень
жарко
997.1 968.6
15 19.06 ЮВ 7 н/о н/о +32.8 +11.9 28 +41 +41 опасность
перегрева
998.2 969.0
18 19.06 ЮВ 5 н/о н/о +28.4 +22.9 72 +38 +38 очень
душно
1000.5 970.8 +43.0
21 19.06 ЮВ 3 н/о н/о +28.0 +22.5 72 +37 +37 очень
душно
1000.2 970.5
00 20.06 В 2 н/о н/о +27.6 +22.4 73 +36 +36 очень
душно
1000.6 970.8
03 20.06 В 2 н/о н/о +27.6 +22.4 73 +36 +36 очень
душно
1000.6 970.8
09 20.06 Ю 2 н/о н/о +38.9 +17.3 28 +41 +41 опасность
перегрева
999.9 971.1
12 20.06 В 4 н/о н/о +39.7 +19.3 31 +44 +44 опасность
перегрева
998.0 969.4
15 20.06 ЮВ 6 н/о н/о +32.4 +22.1 55 +41 +41 опасность
перегрева
999.7 970.4
18 20.06 ЮВ 6 н/о н/о +28.7 +22.9 71 +38 +38 очень
душно
1001.5 971.8 +41.0
21 20.06 ЮВ 6 н/о н/о +27.4 +22.9 76 +36 +36 очень
душно
1000.7 971.0
00 21.06 ЮВ 3 н/о н/о +26.9 +22.8 78 +36 +36 очень
душно
1000.7 970.8
03 21.06 ЮВ 3 н/о н/о +26.1 +22.5 81 +34 +34 очень
душно
1002.1 972.2
06 21.06 ЮВ 2 н/о н/о +33.0 +21.0 49 +40 +40 очень
душно
1002.6 973.2 +25.7
09 21.06 СВ 3 н/о н/о +36.9 +19.0 35 +41 +41 опасность
перегрева
1000.6 971.7
12 21.06 В 5 н/о н/о +37.7 +20.4 37 +44 +44 опасность
перегрева
998.5 969.7
15 21.06 ЮВ 7 н/о н/о +32.0 +21.2 53 +40 +40 очень
душно
999.9 970.6
18 21.06 ЮВ 5 н/о н/о +27.9 +22.8 74 +37 +37 очень
душно
1002.0 972.2 +38.6
21 21.06 ЮВ 6 н/о н/о +24.7 +23.0 90 +33 +33 очень
душно
1001.6 971.5
00 22.06 ЮВ 6 н/о н/о +23.8 +22.7 94 +31 +31 очень
душно
1001.3 971.2
03 22.06 ЮВ 3 н/о н/о +24.1 +23.0 94 +32 +32 очень
душно
1003.0 972.8
09 22.06 Ю 2 н/о н/о +36.9 +18.3 34 +41 +41 опасность
перегрева
1000.5 971.5
12 22.06 ЮВ 5 н/о н/о +37.4 +18.0 32 +41 +41 опасность
перегрева
998.8 969.9
15 22.06 ЮВ 7 н/о н/о +31.8 +21.4 54 +40 +40 очень
душно
999.7 970.3
18 22.06 ЮВ 6 н/о н/о +28.5 +22.6 70 +37 +37 очень
душно
1001.1 971.4 +39.6
21 22.06 ЮВ 4 н/о н/о +26.7 +22.6 78 +35 +35 очень
душно
1000.9 971.0
00 23.06 ЮВ 5 н/о н/о +24.2 +22.4 90 +32 +32 очень
душно
1000.5 970.4
03 23.06 ЮЗ 1 н/о н/о +25.3 +21.5 79 +32 +32 очень
душно
1001.7 971.7
06 23.06 СЗ 3 н/о н/о +33.8 +18.5 40 +38 +38 очень
душно
1002.2 972.9 +24.1
09 23.06 С 1 н/о н/о +40.1 +11.2 18 +39 +39 очень
жарко
999.9 971.2
12 23.06 В 4 н/о н/о +41.6 +6.5 12 +39 +39 очень
жарко
997.9 969.3
15 23.06 ЮВ 8 н/о н/о +33.4 +11.3 26 +39 +39 очень
душно
998.9 969.7
18 23.06 Ю 3 н/о н/о +30.7 +18.5 48 +36 +36 очень
душно
1000.7 971.2 +42.4
21 23.06 ЮВ 5 н/о н/о +28.4 +20.8 63 +35 +35 очень
душно
999.6 970.0
00 24.06 ЮВ 5 н/о н/о +26.5 +21.6 74 +34 +34 очень
душно
999.4 969.6
03 24.06 ЮВ 1 н/о н/о +26.5 +21.9 76 +34 +34 очень
душно
1001.5 971.6
06 24.06 З 5 н/о н/о +34.5 +17.2 36 +38 +38 очень
душно
1001.6 972.4 +25.6
09 24.06 З 5 н/о н/о +40.1 +11.4 18 +39 +39 очень
жарко
999.7 971.3
12 24.06 З 4 н/о н/о +41.5 +10.9 16 +40 +40 очень
жарко
998.1 969.5
15 24.06 ЮВ 7 н/о н/о +36.5 +16.9 31 +39 +39 очень
душно
999.0 970.0
18 24.06 ЮВ 3 н/о н/о +34.3 +19.5 42 +33 +33 жарко 1000.7 971.5 +42.0
21 24.06 ЮВ 2 н/о н/о +30.9 +17.7 45 +35 +35 очень
душно
1000.1 970.6
00 25.06 штиль 0 н/о н/о +29.5 +10.7 31 +30 +30 жарко 1000.1 970.4
03 25.06 СЗ 1 н/о н/о +28.4 +13.9 41 +30 +30 жарко 1001.5 971.7
06 25.06 З 4 н/о н/о +35.3 +14.6 29 +37 +37 очень
душно
1001.5 972.3 +27.4

 

Местоположение метеостанции Marmul (Оман): широта 18.13 долгота 55.17 высота над уровнем моря 269 м.

В архиве по умолчанию представлена погода в Marmul за последнюю неделю. Архивные данные за месяц целиком и за предыдущие месяцы, начиная с января 2011 года, Вы можете получить, выбрав интересующий диапазон дат из раскрывающегося списка и нажав кнопку "Ввод!".


*Определитесь, кто Вы:
робот инопланетянин человек

Внимание! Время в таблицах - всемирное. Для получения местного времени необходимо прибавить поправку, которая в Marmul равна 4 ч.

Смотрите также архив погоды в соседних городах и на ближайших метеорологических станциях:

Погода в Thumrait (Оман) (132 км)
Погода в Qaroon Hairitti (Оман) (151 км)
Погода в Salalah (Оман) (168 км)
Погода в Mina Salalah (Оман) (191 км)
Погода в Yaaloni (Оман) (286 км)
Погода в Duqm (Оман) (307 км)
Погода в Umzamaim (Оман) (361 км)
Погода в Qarn Alam (Оман) (411 км)
Погода в Joba (Оман) (442 км)
Погода в Masirah (Оман) (483 км)

Пояснения к столбцам:

Ветер - указаны скорость ветра в м/с - средняя за 10 мин, порывы в срок и между сроками (в фигурных скобках) и направление, откуда дует ветер: С - северный, СВ - северо-восточный, В - восточный, ЮВ - юго-восточный, Ю - южный, ЮЗ - юго-западный, З - западный, СЗ - северо-западный.
Видимость - горизонтальная дальность видимости в метрах или километрах. При видимости от 1 до 10 км при отсутствии осадков обычно наблюдается дымка, при ухудшении видимости до 1 км и менее - туман. В сухую погоду видимость может ухудшаться дымом, пылью или мглою.
Явления - указаны атмосферные явления, наблюдавшиеся в срок или в последний час перед сроком; фигурными скобками обозначены явления, наблюдавшиеся между сроками (за 1-3 часа до срока); квадратными скобками обозначены град или гололедные отложения с указанием их диаметра в мм.
Облачность - указаны через наклонную черту общая и нижняя облачность в баллах и высота нижней границы облаков в метрах; квадратными скобками обозначены формы облаков: Ci - перистые, Cs - перисто-слоистые, Cc - перисто-кучевые, Ac - высококучевые, As - высокослоистые, Sc - слоисто-кучевые, Ns - слоисто-дождевые, Cu - кучевые, Cb - кучево-дождевые. Подробнее классификацию облаков см. в Атласе облаков (PDF).
T - Температура воздуха - температура, измеренная на высоте 2 м над землей.
Td - Температура точки росы - температура, при понижении до которой содержащийся в воздухе водяной пар достигнет насыщения.
f - Относительная влажность воздуха - влажноcть воздуха, измеренная на высоте 2 м над землей.
Te - Эффективная температура - температура, которую ощущает одетый по сезону человек в тени. Характеристика душности погоды. При расчете учитывается влияние влажности воздуха и скорости ветра на теплоощущения человека.
Tes - Эффективная температура на солнце - температура, которую ощущает человек, с поправкой на солнечный нагрев. Характеристика знойности погоды. Зависит от высоты солнца над горизонтом, облачности и скорости ветра. Ночью, в пасмурную погоду, а также при ветре 12 м/с и более поправка равна нулю.
P - Атмосферное давление - приведенное к уровню моря атмосферное давление.
Po - Атмосферное давление - измеренное на уровне метеостанции атмосферное давление.
Tmin - Минимальная температура - минимум температуры воздуха на высоте 2 м над землей.
Tmax - Максимальная температура - максимум температуры воздуха на высоте 2 м над землей.
R - Количество осадков - Количество выпавших осадков за период времени, мм. При наведении курсора мыши на число - период времени, за который выпало указанное количество осадков.
R24 - Количество осадков - Количество выпавших осадков за 24 часа, мм.
S - Снежный покров - Высота снежного покрова, см. При наведении курсора мыши на число - состояние снежного покрова и степень покрытия местности в баллах.